Regional Weather Roundup
Issued by NWS Albany, NY

Current Version | Previous Version | Text Only | Print | Product List | Glossary On
Versions: 1 2 3 4 5 6 7 8 9 10 11 12 13 14 15 16 17 18 19 20 21 22 23 24 25 26 27 28 29 30 31 32 33 34 35 36 37 38 39 40 41 42 43 44 45 46 47 48 49 50
000
ASUS41 KALY 040910
RWRALY

NEW YORK STATE HOURLY WEATHER ROUNDUP
NATIONAL WEATHER SERVICE ALBANY NY
500 AM EDT TUE AUG 04 2015

NOTE: "FAIR" INDICATES FEW OR NO CLOUDS BELOW 12,000 FEET WITH NO
SIGNIFICANT WEATHER AND/OR NO OBSTRUCTIONS TO VISIBILITY.

NYZ032-033-038>043-046>054-057>066-NYZ062>081-041000-
EAST


CITY           SKY/WX    TMP DP  RH WIND       PRES   REMARKS
ALBANY         CLOUDY    68  65  90 CALM      29.83S
GLENS FALLS    CLOUDY    65  64  97 CALM      29.82S
POUGHKEEPSIE   CLOUDY    69  65  86 CALM      29.83S
NEWBURGH       MOCLDY    66  64  94 CALM      29.85
MONTGOMERY     CLOUDY    66  64  93 CALM      29.83F
WHITE PLAINS   TSTM      71  67  87 VRB6      29.85F
ISLIP          TSTM      74  71  91 NW21G30   29.85R FOG
NEW YORK CITY  TSTM      71  64  78 VRB3      29.83F
CENTRAL PARK   LGT RAIN  70  66  87 CALM      29.87F FOG
$$

NYZ005>009-017-018-044>046-055-056-041000-
CENTRAL


CITY           SKY/WX    TMP DP  RH WIND       PRES   REMARKS
FULTON         CLEAR     63  60  90 SW3       29.81S
SYRACUSE       MOCLDY    65  62  90 SW3       29.81R
ROME           PTCLDY    59  58  96 SE3       29.83S
ELMIRA         PTCLDY    61  60  97 CALM      29.85R
BINGHAMTON     CLOUDY    64  59  83 CALM      29.87R
MONTICELLO     CLOUDY    66  64  94 CALM      29.88S
$$

NYZ026>034-041>043-041000-
NORTH


CITY           SKY/WX    TMP DP  RH WIND       PRES   REMARKS
WATERTOWN      LGT RAIN  64  61  90 S5        29.79R FOG
FORT DRUM      NOT AVBL
MASSENA        CLOUDY    62  58  86 S5        29.78S
SARANAC LAKE   CLOUDY    53  52  96 CALM      29.81F
PLATTSBURGH    MOCLDY    59  57  93 CALM      29.78R
$$

NYZ001>004-010>016-019>021-041000-
WEST


CITY           SKY/WX    TMP DP  RH WIND       PRES   REMARKS
NIAGARA FALLS  CLOUDY    63  59  87 W3        29.83R
BUFFALO        MOCLDY    64  59  83 S3        29.83R
DUNKIRK        PTCLDY    63  61  93 SW6       29.85R
JAMESTOWN      CLOUDY    59  55  88 SW6       29.89S VSB 1/2
WELLSVILLE     CLEAR     57  55  93 CALM      29.90S FOG
ROCHESTER      PTCLDY    62  59  90 SW5       29.83R
PENN YAN       CLEAR     64  61  90 S7        29.85R
$$

             KEY
       WCI = WIND CHILL INDEX
       VSB = VISIBILITY
       HX  = HEAT INDEX
$$


USA.gov is the U.S. government's official web portal to all federal, state and local government web resources and services.